Weather History for Ann Arbor, MI

Change the Weather History Date:

Thursday, October 13, 2011

  Actual Average Record
Temperature  
Mean Temperature 58 °F -  
Max Temperature 66 °F 59 °F 79 °F (2008)
Min Temperature 51 °F 35 °F 23 °F (2012)
Degree Days  
Heating Degree Days 6    
Growing Degree Days 8 (Base 50)    
Moisture  
Dew Point 55 °F    
Average Humidity 90    
Maximum Humidity 100    
Minimum Humidity 68    
Precipitation  
Precipitation 0.45 in - - ()
Sea Level Pressure  
Sea Level Pressure 29.60 in    
Wind  
Wind Speed 2 mph (SSE)    
Max Wind Speed 9 mph    
Max Gust Speed 17 mph    
Visibility 5 miles    
Events Fog , Rain    
Averages and records for this station are not official NWS values.
T = Trace of Precipitation, MM = Missing Value Source: NWS Daily Summary

Daily Weather History Graph

Daily Weather History Graph

Search for Another Location

Airport:

Trip Planner

Search our weather history database for the weather conditions in past years. The results will help you decide how hot, cold, wet, or windy it might be!

Date:

Astronomy

Oct. 13, 2011 Rise Set
Actual Time 7:45 AM EDT 6:56 PM EDT
Civil Twilight 7:16 AM EDT 7:24 PM EDT
Nautical Twilight 6:44 AM EDT 7:57 PM EDT
Astronomical Twilight 6:11 AM EDT 8:29 PM EDT
Moon 7:28 PM EDT (10/13) 9:18 AM EDT (10/13)
Length of Visible Light 12h 08m
Length of Day
11h 11m
Full, 98% of the Moon is Illuminated
Oct 13
Full
Oct 19
Last Quarter
Oct 26
New
Nov 2
First Quarter
Nov 10
Full

Hourly Weather History & Observations

Time (EDT) Temp. Dew Point Humidity Pressure Visibility Wind Dir Wind Speed Gust Speed Precip Events Conditions
12:05 AM 57.2 °F 55.4 °F 94% 29.74 in 5.0 mi Calm Calm - N/A   Overcast
12:31 AM 57.2 °F 55.4 °F 94% 29.74 in 5.0 mi Calm Calm - N/A   Overcast
1:53 AM 55.9 °F 55.0 °F 97% 29.71 in 4.0 mi Calm Calm - N/A   Overcast
2:53 AM 55.9 °F 54.0 °F 93% 29.70 in 3.0 mi Calm Calm - N/A   Overcast
3:01 AM 53.6 °F 53.6 °F 100% 29.70 in 2.5 mi Calm Calm - N/A   Overcast
3:13 AM 55.4 °F 53.6 °F 94% 29.70 in 3.0 mi Calm Calm - N/A   Overcast
3:28 AM 55.4 °F 55.4 °F 100% 29.70 in 3.0 mi Calm Calm - N/A   Overcast
3:51 AM 55.4 °F 53.6 °F 94% 29.69 in 3.0 mi Calm Calm - N/A   Overcast
3:53 AM 55.0 °F 54.0 °F 96% 29.69 in 2.5 mi Calm Calm - N/A   Overcast
4:10 AM 55.4 °F 55.4 °F 100% 29.69 in 3.0 mi Calm Calm - N/A   Overcast
4:26 AM 55.4 °F 55.4 °F 100% 29.69 in 3.0 mi Calm Calm - N/A   Overcast
4:34 AM 55.4 °F 55.4 °F 100% 29.69 in 3.0 mi West 3.5 mph - N/A   Overcast
4:53 AM 55.9 °F 55.0 °F 97% 29.68 in 3.0 mi Calm Calm - N/A   Overcast
5:03 AM 55.4 °F 55.4 °F 100% 29.67 in 3.0 mi Calm Calm - N/A   Overcast
5:09 AM 55.4 °F 53.6 °F 94% 29.67 in 3.0 mi NNW 3.5 mph - N/A   Mostly Cloudy
5:36 AM 51.8 °F 51.8 °F 100% 29.67 in 2.0 mi South 3.5 mph - N/A   Mostly Cloudy
5:45 AM 51.8 °F 51.8 °F 100% 29.68 in 1.8 mi SSW 3.5 mph - N/A   Mostly Cloudy
5:53 AM 54.0 °F 53.1 °F 97% 29.68 in 2.0 mi South 3.5 mph - N/A   Overcast
6:50 AM 55.4 °F 53.6 °F 94% 29.67 in 1.2 mi Calm Calm - N/A   Mostly Cloudy
6:53 AM 54.0 °F 53.1 °F 97% 29.67 in 0.5 mi Calm Calm - N/A Fog Fog
7:03 AM 53.6 °F 53.6 °F 100% 29.67 in 1.8 mi Calm Calm - N/A   Mostly Cloudy
7:20 AM 55.4 °F 53.6 °F 94% 29.67 in 2.0 mi SE 3.5 mph - N/A   Overcast
7:53 AM 55.9 °F 55.0 °F 97% 29.66 in 2.0 mi Calm Calm - N/A   Overcast
8:01 AM 55.4 °F 55.4 °F 100% 29.66 in 1.5 mi Calm Calm - N/A   Overcast
8:33 AM 55.4 °F 53.6 °F 94% 29.66 in 2.0 mi Calm Calm - N/A   Mostly Cloudy
8:53 AM 55.9 °F 55.0 °F 97% 29.65 in 1.8 mi Calm Calm - N/A   Scattered Clouds
9:04 AM 55.4 °F 55.4 °F 100% 29.65 in 1.2 mi ESE 3.5 mph - N/A   Mostly Cloudy
9:29 AM 55.4 °F 55.4 °F 100% 29.65 in 2.0 mi SSE 4.6 mph - N/A   Overcast
9:51 AM 57.2 °F 55.4 °F 94% 29.65 in 3.0 mi South 4.6 mph - N/A   Overcast
9:53 AM 57.0 °F 55.0 °F 93% 29.65 in 3.0 mi South 5.8 mph - N/A   Overcast
10:11 AM 57.2 °F 55.4 °F 94% 29.65 in 3.0 mi SSE 6.9 mph - N/A   Overcast
10:53 AM 57.9 °F 55.0 °F 90% 29.64 in 4.0 mi South 3.5 mph - N/A   Overcast
11:53 AM 59.0 °F 55.0 °F 87% 29.62 in 4.0 mi South 3.5 mph - N/A   Overcast
12:11 PM 60.8 °F 55.4 °F 82% 29.62 in 5.0 mi Calm Calm - N/A   Haze
12:39 PM 62.6 °F 55.4 °F 77% 29.61 in 6.0 mi SSE 3.5 mph - N/A   Haze
12:53 PM 62.1 °F 55.9 °F 80% 29.61 in 7.0 mi ESE 4.6 mph - N/A   Mostly Cloudy
1:36 PM 64.4 °F 55.4 °F 73% 29.58 in 10.0 mi ESE 5.8 mph - N/A   Scattered Clouds
1:53 PM 64.0 °F 55.0 °F 73% 29.57 in 10.0 mi Variable 4.6 mph - N/A   Scattered Clouds
2:53 PM 64.9 °F 55.0 °F 70% 29.55 in 10.0 mi SSE 4.6 mph - N/A   Overcast
4:02 PM 66.2 °F 55.4 °F 68% 29.53 in 10.0 mi SE 5.8 mph - N/A   Mostly Cloudy
4:41 PM 64.4 °F 55.4 °F 73% 29.51 in 10.0 mi SE 9.2 mph - N/A   Overcast
4:53 PM 64.9 °F 55.9 °F 73% 29.51 in 10.0 mi SE 9.2 mph - N/A   Overcast
5:04 PM 64.4 °F 55.4 °F 73% 29.51 in 10.0 mi SE 8.1 mph - N/A   Overcast
5:20 PM 64.4 °F 55.4 °F 73% 29.50 in 10.0 mi ESE 6.9 mph - N/A   Overcast
5:53 PM 63.0 °F 55.9 °F 78% 29.49 in 10.0 mi ESE 6.9 mph - N/A   Overcast
6:35 PM 62.6 °F 55.4 °F 77% 29.49 in 9.0 mi ESE 4.6 mph - N/A   Mostly Cloudy
6:53 PM 62.1 °F 55.9 °F 80% 29.49 in 9.0 mi SE 6.9 mph - N/A   Overcast
7:03 PM 62.6 °F 55.4 °F 77% 29.48 in 10.0 mi ESE 5.8 mph - N/A   Overcast
8:00 PM 60.8 °F 55.4 °F 82% 29.47 in 10.0 mi ESE 3.5 mph - N/A   Overcast
8:53 PM 61.0 °F 55.0 °F 81% 29.46 in 10.0 mi SE 8.1 mph - N/A   Overcast
9:23 PM 59.0 °F 55.4 °F 88% 29.46 in 6.0 mi SE 5.8 mph - 0.03 in Rain Light Rain
9:53 PM 59.0 °F 57.0 °F 93% 29.45 in 7.0 mi SE 5.8 mph - 0.03 in   Overcast
10:38 PM 57.2 °F 57.2 °F 100% 29.44 in 3.0 mi South 3.5 mph - 0.05 in Rain Rain
10:48 PM 57.2 °F 57.2 °F 100% 29.43 in 2.5 mi Calm Calm - 0.08 in Rain Rain
10:53 PM 57.9 °F 57.0 °F 97% 29.43 in 2.0 mi SE 3.5 mph - 0.10 in Rain Rain
11:18 PM 59.0 °F 57.2 °F 94% 29.42 in 1.5 mi SSE 6.9 mph - 0.17 in Rain Heavy Rain
11:40 PM 59.0 °F 57.2 °F 94% 29.41 in 3.0 mi South 8.1 mph 17.3 mph 0.32 in Rain Light Rain
11:53 PM 59.0 °F 57.0 °F 93% 29.40 in 7.0 mi South 4.6 mph - 0.32 in   Overcast